Location: Newark
(39.9333°N, 8.7667°E)
Time: 03:50:05
(UTC+00:00)

LightSail 2 - Visible Passes

Search period start: 22 January 2021 00:00
Search period end: 01 February 2021 00:00
Orbit: 684 x 713 km, 24.0° (Epoch: 21 January)

Date Brightness Start Highest point End Pass type
(mag) Time Alt. Az. Time Alt. Az. Time Alt. Az.
24 Jan 7.8 05:53:19 10° S 05:54:29 11° S 05:55:39 10° SSE visible
26 Jan 7.6 05:32:21 10° SSW 05:34:10 12° S 05:36:01 10° SSE visible
27 Jan 7.6 04:30:41 10° S 04:31:53 11° S 04:33:05 10° SSE visible
28 Jan 7.5 05:11:50 10° SSW 05:13:50 12° S 05:15:50 10° SSE visible
29 Jan 7.5 04:11:30 12° S 04:11:30 12° S 04:13:20 10° SSE visible
29 Jan 7.5 05:54:34 10° SSW 05:55:46 11° S 05:56:59 10° S visible
30 Jan 7.4 04:51:37 10° SSW 04:53:26 12° S 04:55:14 10° SSE visible
31 Jan 7.7 03:52:39 11° SSE 03:52:39 11° SSE 03:53:04 10° SSE visible
